LiveATC.Net - Listen to live air traffic control over the Internet!


ICAO: ZBAA  IATA: PEK   Airport: Beijing Capital International Airport
City: Beijing
Country: China   Continent: Asia
ZBAA METAR Weather: ZBAA 282100Z 36004MPS 9999 -RA NSC 16/14 Q1016 NOSIG
ZBAA Flight Activity (FlightAware)

ZBAA Tower
Feed Status: DOWN
Last heard on: 2020-09-28 19:42:39 (0 days 2 hours 18 minutes ago)
Archive Access: ZBAA Tower
FacilityFrequency
Beijing Tower (Rwy 01/19)118.600

NOTICE

Unauthorized use prohibited. See LiveATC.net Terms of Service


Airport/ARTCC Code
Frequency Search
(e.g., 124.400, 128.75)
Site-wide search
 


Browse Feeds
Top 50 Feeds
Coverage Map
Bad Weather Areas

LiveATC FAQ
Offer LiveATC feed
Contact LiveATC.net
Press Inquiries

LiveATC on iPhone
LiveATC on Android

Windows Phone
Windows 8/10

LiveATC Mobile
(Mobile browser)

ATC Audio Archives
Interesting Recordings

LiveATC Forums


Home Page
About LiveATC.net
Make a Donation
Terms of Use
Privacy Policy

Canadian Air Freqs

AIRMETs/SIGMETs

FAA Airport Status
Nat'l Airspace Status
Arrival Demand Charts


Server Software By:
Icecast.org
Liquidsoap